Location: Wojcin
(51.3330°N, 20.0330°E)
Time: 19:40:42
(UTC+02:00)

Envisat - Visible Passes

Search period start: 23 July 2024 00:00
Search period end: 02 August 2024 00:00
Orbit: 762 x 764 km, 98.3° (Epoch: 23 July)

Date Brightness Start Highest point End Pass type
(mag) Time Alt. Az. Time Alt. Az. Time Alt. Az.
23 Jul 4.1 03:29:27 10° NNE 03:34:18 42° E 03:39:05 10° SSE visible
24 Jul 5.1 02:52:40 10° NE 02:56:34 22° E 03:00:25 10° SE visible
25 Jul 5.7 02:17:41 10° ENE 02:18:37 10° E 02:19:32 10° E visible
25 Jul 3.4 03:53:30 10° NNE 03:58:35 67° ESE 04:03:37 10° S visible
26 Jul 4.5 03:16:24 10° NNE 03:20:59 33° E 03:25:33 10° SSE visible
27 Jul 5.4 02:39:54 10° NE 02:43:11 17° E 02:46:28 10° SE visible
28 Jul 3.7 03:40:21 10° NNE 03:45:20 52° E 03:50:16 10° S visible
29 Jul 4.8 03:03:24 10° NE 03:07:39 26° E 03:11:54 10° SSE visible
30 Jul 5.5 02:27:21 10° ENE 02:29:47 13° E 02:32:11 10° ESE visible
30 Jul 3.1 04:04:27 10° NNE 04:09:34 82° ESE 04:14:39 10° SSW visible
31 Jul 4.1 03:27:14 10° NNE 03:32:02 41° E 03:36:49 10° SSE visible
01 Aug 5.1 02:50:28 10° NE 02:54:18 21° E 02:58:06 10° SE visible
